Bremerton, WA

10:10 AM PST on November 15, 2019 (GMT -0800)
Bremerton National

Weather History for KPWT - August, 2019

Change the Weather History Date:

Monday, August 19, 2019

  Actual Average Record
Temperature  
Mean Temperature 65 °F -  
Max Temperature 75 °F 73 °F 93 °F (2016)
Min Temperature 57 °F 50 °F 44 °F (1998)
Growing Degree Days 15 (Base 50)    
Moisture  
Dew Point 55 °F    
Average Humidity 76    
Maximum Humidity 93    
Minimum Humidity 53    
Precipitation  
Precipitation 0.00 in - - ()
Sea Level Pressure  
Sea Level Pressure 30.03 in    
Wind  
Wind Speed 3 mph ()    
Max Wind Speed 10 mph    
Max Gust Speed -    
Visibility 10.0 miles    
Events      
Averages and records for this station are not official NWS values.
T = Trace of Precipitation, MM = Missing Value Source: Averaged Metar Reports

Daily Weather History Graph

Daily Weather History Graph

Search for Another Location

Airport or City:

Astronomy

Aug. 19, 2019 Rise Set
Actual Time 6:12 AM PDT 8:16 PM PDT
Civil Twilight 5:38 AM PDT 8:49 PM PDT
Nautical Twilight 4:57 AM PDT 9:30 PM PDT
Astronomical Twilight 4:11 AM PDT 10:15 PM PDT
Moon 10:23 PM PDT (8/19) 10:12 AM PDT (8/19)
Length of Visible Light 15h 10m
Length of Day
14h 03m
Waning Gibbous, 84% of the Moon is Illuminated
Aug 19
Waning Gibbous
Aug 23
Last Quarter
Aug 30
New
Sep 5
First Quarter
Sep 13
Full

Hourly Weather History & Observations

Time (PDT) Temp. Dew Point Humidity Pressure Visibility Wind Dir Wind Speed Gust Speed Precip Events Conditions
12:56 AM 59.0 °F 54.0 °F 83% 29.95 in 10.0 mi Calm Calm - N/A   Overcast
1:56 AM 57.0 °F 54.0 °F 89% 29.97 in 10.0 mi South 4.6 mph - N/A   Overcast
2:56 AM 57.0 °F 54.0 °F 89% 29.98 in 10.0 mi Calm Calm - N/A   Overcast
3:56 AM 57.0 °F 54.0 °F 89% 29.99 in 10.0 mi SSW 3.5 mph - N/A   Overcast
4:45 AM 57.2 °F 53.6 °F 88% 29.96 in 10.0 mi Calm Calm - N/A   Overcast
4:56 AM 57.0 °F 55.0 °F 93% 30.00 in 10.0 mi Calm Calm - N/A   Overcast
5:56 AM 57.0 °F 55.0 °F 93% 30.02 in 10.0 mi Calm Calm - N/A   Overcast
6:56 AM 57.0 °F 55.0 °F 93% 30.04 in 10.0 mi Calm Calm - N/A   Overcast
7:56 AM 57.9 °F 55.0 °F 90% 30.04 in 10.0 mi East 3.5 mph - N/A   Overcast
8:56 AM 60.1 °F 55.9 °F 86% 30.06 in 10.0 mi Calm Calm - N/A   Overcast
9:34 AM 60.8 °F 55.4 °F 82% 30.02 in 10.0 mi SW 3.5 mph - N/A   Overcast
9:56 AM 60.1 °F 55.9 °F 86% 30.07 in 9.0 mi Calm Calm - N/A   Overcast
10:56 AM 62.1 °F 55.9 °F 80% 30.08 in 10.0 mi West 3.5 mph - N/A   Overcast
11:07 AM 62.6 °F 55.4 °F 77% 30.03 in 10.0 mi Variable 4.6 mph - N/A   Overcast
11:56 AM 64.0 °F 55.9 °F 75% 30.08 in 10.0 mi SW 3.5 mph - N/A   Mostly Cloudy
12:20 PM 66.2 °F 55.4 °F 68% 30.02 in 10.0 mi Calm Calm - N/A   Mostly Cloudy
12:56 PM 66.9 °F 55.0 °F 66% 30.07 in 10.0 mi SW 4.6 mph - N/A   Overcast
1:56 PM 69.1 °F 54.0 °F 58% 30.07 in 10.0 mi Variable 6.9 mph - N/A   Mostly Cloudy
2:56 PM 73.0 °F 55.9 °F 55% 30.07 in 10.0 mi NE 9.2 mph - N/A   Mostly Cloudy
3:56 PM 71.1 °F 55.0 °F 57% 30.06 in 10.0 mi NNE 8.1 mph - N/A   Mostly Cloudy
4:56 PM 73.0 °F 55.0 °F 53% 30.06 in 10.0 mi ENE 9.2 mph - N/A   Overcast
5:56 PM 73.0 °F 55.0 °F 53% 30.04 in 10.0 mi NE 10.4 mph - N/A   Clear
6:56 PM 71.1 °F 55.0 °F 57% 30.03 in 10.0 mi NNE 6.9 mph - N/A   Clear
7:56 PM 66.9 °F 55.0 °F 66% 30.03 in 10.0 mi NNE 5.8 mph - N/A   Clear
8:56 PM 63.0 °F 54.0 °F 72% 30.04 in 10.0 mi ENE 5.8 mph - N/A   Clear
9:56 PM 60.1 °F 53.1 °F 78% 30.04 in 10.0 mi NE 5.8 mph - N/A   Clear
10:56 PM 60.1 °F 51.1 °F 72% 30.03 in 10.0 mi NE 6.9 mph - N/A   Clear
11:56 PM 60.1 °F 51.1 °F 72% 30.02 in 10.0 mi NE 6.9 mph - N/A   Clear